Regional Weather Roundup
Issued by NWS

Home | Current Version | Previous Version | Graphics & Text | Print | Product List | Glossary On
Versions: 1 2 3 4 5 6 7 8 9 10 11 12 13 14 15 16 17 18 19 20 21 22 23 24 25 26 27 28 29 30 31 32 33 34 35 36 37 38 39 40 41 42 43 44 45 46 47 48 49 50
469
ASUS44 KLIX 022010
RWRLA
LOUISIANA WEATHER ROUNDUP
NATIONAL WEATHER SERVICE NEW ORLEANS LA
200 PM CST MON MAR 02 2015

NOTE: "FAIR" INDICATES FEW OR NO CLOUDS BELOW 12,000 FEET WITH NO
      SIGNIFICANT WEATHER AND/OR OBSTRUCTIONS TO VISIBILITY.
      SKY/WX - SKY CONDITION AND SIGNIFICANT WEATHER.
      TMP - AIR TEMPERATURE.    DP   - DEWPOINT TEMPERATURE.
      RH  - RELATIVE HUMIDITY.  PRES - PRESSURE.
      HX  - HEAT INDEX.         WCI  - WIND CHILL INDEX.

*  THESE STATIONS ARE NOT NWS OR FAA STATIONS AND ARE NOT UNDER
   NWS QUALITY CONTROL.

LAZ040-048-061>063-065-066-069-022100-
SOUTHEAST LOUISIANA

CITY           SKY/WX    TMP DP  RH WIND       PRES   REMARKS
N.O. AUDUBON     N/A     76  73  88 MISG        N/A
N.O. INTL ARPT LGT RAIN  75  70  84 S6        30.20F
N.O. LAKEFRONT CLOUDY    65  60  84 NE10      30.21F
SLIDELL        CLOUDY    71  67  87 NE5       30.21F
BATON ROUGE    FOG       65  64  97 NW5       30.21F VSB 3/4
BOOTHVILLE     SUNNY     76  69  79 S8        30.22F
BELLE CHASSE   PTSUNNY   78  68  71 SW10      30.19F
BOGALUSA*      RAIN      65  62  90 NE3       30.24F
GALLIANO*      MOCLDY    82  70  67 S12       30.20F
NEW ROADS*     LGT RAIN  52  52  99 NW6       30.24F
GONZALES*      MOCLDY    77  72  84 W7        30.19F
HAMMOND*       NOT AVBL
HOUMA*         NOT AVBL
PORT FOURCHON* CLEAR     75  70  83 S10       30.23F

$$

LAZ041-044-053-054-022100-
SOUTHWEST LOUISIANA

CITY           SKY/WX    TMP DP  RH WIND       PRES   REMARKS
LAKE CHARLES   CLOUDY    58  56  93 NE7       30.22F
LAFAYETTE      CLOUDY    59  57  93 N8        30.22F FOG
PATTERSON      CLOUDY    77  70  78 SW8       30.21F
SALT POINT       N/A     73  69  87 VRB3      30.19F
NEW IBERIA     CLOUDY    64  63  96 N9        30.22F FOG
CHENAULT AIRPK CLOUDY    57  55  94 VRB5      30.23F

$$

LAZ027-028-022100-
CENTRAL LOUISIANA

CITY           SKY/WX    TMP DP  RH WIND       PRES   REMARKS
FORT POLK      CLOUDY    52  50  93 VRB5      30.24F
ALEXANDRIA INT CLOUDY    49  46  90 N7        30.26F
ALEXANDRIA     CLOUDY    48  46  93 VRB5      30.26F

$$

LAZ001-002-022100-
NORTHWEST LOUISIANA

CITY           SKY/WX    TMP DP  RH WIND       PRES   REMARKS
SHREVEPORT     DRIZZLE   43  42  97 NE8       30.28F FOG
BARKSDALE AFB  CLOUDY    42  41  99 E8        30.30F
DTN SHREVEPORT CLOUDY    42  39  89 NE8       30.30F FOG

$$

LAZ014-016-022100-
NORTHEAST LOUISIANA

CITY           SKY/WX    TMP DP  RH WIND       PRES   REMARKS
MONROE         CLOUDY    42  40  92 NE9       30.31F
TALLULAH       LGT RAIN  44  43  96 N7        30.29F FOG

$$




USA.gov is the U.S. government's official web portal to all federal, state and local government web resources and services.